KE8ZZR Weather Reports


time (UTC)temp
C
wind
direction
speed
KPH
gust
KPH
rain 1hr
cm
rain 24hr
cm
rain mn
cm
humidity
%
barometer
mb
20260510103058 6 0 0.0 0.0 0.00 0.76 0.00 94 1012.2
20260510101602 6 0 0.0 0.0 0.00 0.76 0.00 93 1012.0
20260510100104 6 0 0.0 3.2 0.00 0.76 0.00 93 1012.1
20260510094606 6 0 0.0 0.0 0.00 0.81 0.00 93 1011.8
20260510093058 7 0 0.0 0.0 0.00 0.81 0.00 93 1011.7
20260510091558 7 0 0.0 0.0 0.00 0.81 0.00 93 1011.4
20260510090056 7 0 0.0 0.0 0.00 0.81 0.00 93 1011.2
20260510084556 7 0 0.0 6.4 0.00 0.84 0.00 93 1010.9
20260510083100 8 100 0.0 3.2 0.00 0.84 0.00 92 1010.7
20260510081556 9 13 1.6 6.4 0.00 0.84 0.00 92 1010.7
20260510080100 10 310 0.0 6.4 0.00 0.84 0.00 93 1010.6
20260510074605 10 0 0.0 6.4 0.00 1.07 0.00 94 1010.1
20260510073055 10 294 0.0 1.6 0.00 1.07 0.00 94 1010.0
20260510071557 10 0 0.0 0.0 0.00 1.07 0.00 94 1009.9
20260510070109 10 0 0.0 1.6 0.00 1.07 0.00 93 1009.4
20260510064602 10 0 0.0 4.8 0.00 1.32 0.00 93 1009.1
20260510063100 10 0 0.0 0.0 0.00 1.32 0.00 93 1009.0
20260510061556 10 0 0.0 0.0 0.00 1.32 0.00 93 1008.7
20260510060104 10 0 0.0 9.7 0.00 1.32 0.00 94 1008.6
20260510054601 10 321 1.6 4.8 0.00 1.42 0.00 93 1008.7
20260510053055 10 1 1.6 3.2 0.00 1.42 0.00 94 1008.5
20260510051557 10 0 0.0 3.2 0.00 1.42 0.00 93 1008.6
20260510050100 10 0 0.0 0.0 0.00 1.42 0.00 92 1008.5
20260510044611 10 0 0.0 1.6 0.00 1.57 0.00 92 1008.1
20260510043110 11 0 0.0 0.0 0.00 1.57 0.00 92 1008.1
20260510041609 11 0 0.0 0.0 0.03 1.57 0.00 92 1008.3
20260510040059 11 18 0.0 4.8 0.03 1.57 0.00 92 1008.3
20260510034600 12 311 4.8 9.7 0.05 1.60 1.57 92 1008.6
20260510033129 12 0 0.0 3.2 0.05 1.60 1.57 92 1008.0
20260510031619 12 0 0.0 1.6 0.03 1.57 1.55 92 1008.1
20260510030111 12 32 3.2 6.4 0.03 1.57 1.55 92 1007.8
20260510024600 11 0 0.0 1.6 0.00 1.60 1.52 92 1008.4
20260510023055 11 0 0.0 3.2 0.00 1.60 1.52 92 1008.0
20260510021556 11 0 0.0 0.0 0.00 1.60 1.52 92 1007.6
20260510020054 11 0 0.0 1.6 0.00 1.60 1.52 91 1007.6
20260510014606 11 0 0.0 0.0 0.00 1.65 1.52 91 1007.4
20260510013057 11 0 0.0 0.0 0.00 1.65 1.52 90 1007.2
20260510011559 12 0 0.0 0.0 0.03 1.65 1.52 90 1006.9
20260510004558 12 279 3.2 8.0 0.30 1.73 1.52 90 1007.2
20260510003101 12 0 0.0 8.0 0.71 1.73 1.52 89 1007.0
20260510001557 12 252 4.8 20.9 0.69 1.70 1.47 88 1007.4
20260510000057 12 278 8.0 19.3 0.56 1.57 1.37 87 1007.2
20260509234606 13 296 9.7 38.6 0.41 1.60 1.22 82 1007.0
20260509233053 18 293 8.0 24.1 0.00 1.19 0.81 61 1005.7
20260509231556 18 269 3.2 16.1 0.00 1.19 0.81 63 1004.7
20260509230057 19 283 1.6 11.3 0.00 1.19 0.81 62 1004.6
20260509224557 20 212 1.6 16.1 0.00 1.19 0.81 61 1004.5
20260509223059 20 271 3.2 16.1 0.00 1.19 0.81 57 1004.4
20260509221557 21 275 4.8 20.9 0.00 1.19 0.81 56 1004.4
20260509214555 21 259 4.8 16.1 0.00 1.19 0.81 54 1004.5
20260509213058 21 89 4.8 17.7 0.00 1.19 0.81 57 1004.5
20260509211555 21 261 4.8 22.5 0.00 1.19 0.81 55 1004.6
20260509210100 21 136 6.4 19.3 0.00 1.19 0.81 55 1005.1
20260509204604 21 233 4.8 12.9 0.00 1.24 0.81 55 1005.2
20260509203055 21 243 3.2 11.3 0.00 1.24 0.81 56 1005.4
20260509201600 21 55 4.8 11.3 0.00 1.24 0.81 59 1005.6
20260509200057 20 219 4.8 12.9 0.00 1.24 0.81 61 1005.9
20260509194558 20 12 4.8 16.1 0.00 1.32 0.81 60 1006.1
20260509193058 20 166 3.2 17.7 0.00 1.32 0.81 62 1006.3
20260509191601 20 302 1.6 19.3 0.00 1.32 0.81 63 1006.5
20260509184558 20 313 6.4 19.3 0.00 1.37 0.81 63 1006.6
20260509183059 19 221 3.2 27.4 0.00 1.37 0.81 63 1006.6
20260509181604 20 258 3.2 14.5 0.00 1.37 0.81 66 1006.8
20260509180059 19 278 6.4 16.1 0.00 1.37 0.81 64 1006.7
20260509174605 18 303 1.6 16.1 0.00 1.40 0.81 69 1006.9
20260509173112 18 245 4.8 20.9 0.00 1.40 0.81 68 1006.9
20260509171603 18 96 1.6 12.9 0.00 1.40 0.81 70 1006.8
20260509170059 18 268 3.2 19.3 0.00 1.40 0.81 69 1006.8
20260509164555 18 105 1.6 8.0 0.00 1.40 0.81 71 1007.0
20260509163103 17 184 4.8 14.5 0.00 1.40 0.81 72 1007.1
20260509161603 16 214 1.6 11.3 0.00 1.40 0.81 80 1007.2
20260509160059 16 224 1.6 11.3 0.00 1.40 0.81 82 1007.2
20260509154607 15 212 4.8 19.3 0.00 1.40 0.81 82 1007.2
20260509153058 15 250 4.8 12.9 0.00 1.40 0.81 85 1007.2
20260509151555 14 337 4.8 14.5 0.00 1.40 0.81 85 1007.2
20260509150055 14 288 1.6 16.1 0.00 1.40 0.81 88 1007.1
20260509144610 13 212 8.0 19.3 0.00 1.40 0.81 89 1007.0
20260509143056 13 279 3.2 16.1 0.00 1.40 0.81 93 1007.1
20260509141557 12 233 3.2 12.9 0.00 1.40 0.81 92 1007.2
20260509140110 12 161 1.6 8.0 0.00 1.40 0.81 93 1007.0
20260509134556 12 265 1.6 4.8 0.00 1.40 0.81 93 1007.1
20260509133103 12 0 0.0 4.8 0.00 1.40 0.81 93 1007.0
20260509131602 11 0 0.0 4.8 0.00 1.40 0.81 93 1007.2
20260509130106 11 0 0.0 1.6 0.00 1.40 0.81 93 1007.4
20260509124606 11 262 0.0 3.2 0.00 1.40 0.81 93 1007.5
20260509123057 11 0 0.0 3.2 0.00 1.40 0.81 93 1007.5
20260509121604 11 271 0.0 4.8 0.00 1.40 0.81 93 1007.4
20260509120057 11 0 0.0 4.8 0.00 1.40 0.81 93 1007.6
20260509114557 10 276 0.0 3.2 0.00 1.40 0.81 93 1007.5
20260509113058 10 0 0.0 1.6 0.00 1.40 0.81 93 1007.4
20260509111603 10 0 0.0 1.6 0.00 1.40 0.81 93 1007.3
20260509110056 10 0 0.0 1.6 0.00 1.40 0.81 93 1007.3
20260509104557 10 0 1.6 3.2 0.03 1.40 0.81 93 1007.1